Location: Casilda
(33.0440°S, 61.1680°W)
Time: 18:33:03
(UTC-03:00)

ISS - Pass Details

Date: 25 November 2021
Orbit: 417 x 423 km, 51.6° (Epoch: 28 November)

Event Time Altitude Azimuth Distance (km) Brightness Sun altitude
Exits shadow 04:25:12 37° 330° (NNW) 679 -3.2 -15.9°
Maximum altitude 04:26:24 73° 45° (NE) 446 -3.7 -15.7°
Drops below altitude 10° 04:29:48 10° 130° (SE) 1,517 0.5 -15.1°
Sets 04:31:55 0° 132° (SE) 2,388 2.0 -14.8°
